Location: Utrecht
(52.0907°N, 5.1214°E)
Time: 10:52:51
(UTC+02:00)

KKS-1 - Visible Passes

Search period start: 27 June 2022 00:00
Search period end: 07 July 2022 00:00
Orbit: 636 x 647 km, 98.2° (Epoch: 26 June)

Date Brightness Start Highest point End Pass type
(mag) Time Alt. Az. Time Alt. Az. Time Alt. Az.
27 Jun ? 00:58:14 10° N 01:02:05 29° WNW 01:05:55 10° WSW visible
27 Jun ? 23:45:18 10° NNE 23:49:48 70° ESE 23:54:10 10° S visible
28 Jun ? 01:22:40 10° NNW 01:25:51 19° WNW 01:29:01 10° WSW visible
29 Jun ? 00:09:18 10° NNE 00:13:47 73° WNW 00:18:14 10° SSW visible
29 Jun ? 01:47:28 10° NNW 01:49:32 13° NW 01:51:36 10° W visible
29 Jun ? 22:57:13 10° NE 23:01:00 26° E 23:04:45 10° SSE visible
30 Jun ? 00:33:25 10° N 00:37:42 45° WNW 00:41:58 10° SW visible
30 Jun ? 23:20:53 10° NNE 23:25:10 41° E 23:29:18 11° S visible
01 Jul ? 00:57:40 10° N 01:01:33 29° WNW 01:05:23 10° WSW visible
01 Jul ? 23:44:45 10° NNE 23:49:15 69° ESE 23:53:32 11° S visible
02 Jul ? 01:22:06 10° NNW 01:25:19 20° WNW 01:28:31 10° WSW visible
03 Jul ? 00:08:44 10° NNE 00:13:14 74° WNW 00:17:41 10° SSW visible
03 Jul ? 01:46:53 10° NNW 01:49:00 13° NW 01:51:07 10° W visible
03 Jul ? 22:56:41 10° NE 23:00:26 25° E 23:04:08 10° SSE visible
04 Jul ? 00:32:51 10° N 00:37:09 46° WNW 00:41:25 10° SW visible
04 Jul ? 23:20:20 10° NNE 23:24:35 40° E 23:28:37 11° SSE visible
05 Jul ? 00:57:06 10° N 01:00:59 30° WNW 01:04:51 10° WSW visible
05 Jul ? 23:44:11 10° NNE 23:48:40 67° ESE 23:52:51 11° S visible
06 Jul ? 01:21:30 10° NNW 01:24:45 20° WNW 01:27:59 10° WSW visible
